Home > Weather > Ceuta > Past weeks

Flag for Spain Weather for the Past 2 Weeks in Ceuta, Ceuta, Spain

Now
59 °F

Rain. Partly cloudy.


Feels Like: 57 °F
Forecast: 60 / 63 °F
Wind: 12 mph from Southwest

Location: Gibraltar Airport

Current Time: Feb 11, 2016 at 7:52:37 AM

Latest Report: Feb 11, 2016 at 6:50 AM


Visibility: 3 mi

Pressure: 30.12 "Hg

Humidity: 100%

Dew point: 59 °F

Location of CeutaLocation

Historic Weather in Ceuta — Graph

°F

Ceuta Temperature Yesterday

Maximum temperature yesterday: 63 °F (at 1:50 AM)
Minimum temperature yesterday: 59 °F (at 2:50 AM)
Average temperature yesterday: 61 °F

High & Low Weather Summary for the Past Weeks

 TemperatureHumidityPressure
High68 °F (Jan 31, 4:50 PM)100% (Feb 2, 6:50 AM)30.57 "Hg (Feb 2, 6:50 AM)
Low50 °F (Jan 28, 7:50 AM)43% (Jan 31, 1:50 PM)30.12 "Hg (Feb 11, 3:50 AM)
Average59 °F79%30.36 "Hg
* Reported Jan 27 6:50 AM — Feb 11 6:50 AM, Ceuta, Weather by CustomWeather, © 2016

Note: Actual official high and low records may vary slightly from our data, if they occured in-between our weather recording intervals... More about our weather records

Advertising

Ceuta Weather History for the Previous 24 Hours

 ConditionsComfort  
Time TempWeatherWind HumidityBarometerVisibility
6:50 AM
Thu, Feb 11
59 °FRain. Partly cloudy.12 mph100%30.12 "Hg3 mi
5:50 AM61 °FPartly cloudy.20 mph94%30.12 "HgN/A
4:50 AM61 °FPassing clouds.24 mph88%30.12 "HgN/A
3:50 AM61 °FPassing clouds.18 mph88%30.12 "HgN/A
2:50 AM61 °FPassing clouds.20 mph88%30.15 "HgN/A
1:50 AM61 °FOvercast.17 mph88%30.15 "HgN/A
12:50 AM63 °FPartly cloudy.15 mph83%30.18 "HgN/A
11:50 PM
Wed, Feb 10
61 °FPassing clouds.17 mph88%30.18 "HgN/A
10:50 PM61 °FPassing clouds.13 mph88%30.21 "HgN/A
9:50 PM63 °FPartly cloudy.6 mph83%30.21 "HgN/A
8:50 PM61 °FPassing clouds.12 mph88%30.21 "HgN/A
7:50 PM61 °FPartly cloudy.21 mph88%30.21 "HgN/A
6:50 PM61 °FPartly sunny.16 mph88%30.21 "HgN/A
5:50 PM63 °FBroken clouds.25 mph77%30.21 "HgN/A
4:50 PM63 °FBroken clouds.16 mph73%30.21 "HgN/A
3:50 PM63 °FPartly sunny.14 mph73%30.21 "HgN/A
2:50 PM63 °FBroken clouds.20 mph73%30.24 "HgN/A
1:50 PM63 °FBroken clouds.24 mph77%30.27 "HgN/A
12:50 PM63 °FPartly sunny.21 mph73%30.30 "HgN/A
11:50 AM63 °FPartly sunny.18 mph77%30.30 "HgN/A
9:50 AM61 °FPartly sunny.21 mph94%30.30 "HgN/A
8:50 AM61 °FBroken clouds.21 mph94%30.30 "HgN/A
7:50 AM61 °FPassing clouds.20 mph94%30.27 "HgN/A
Weather by CustomWeather, © 2016

See weather overviewHow to use our weather pages